Location: Pine Mountain Observatory
(43.7910°N, 120.9377°W)
Time: 04:24:58
(UTC-08:00)

APEX - Visible Passes

Search period start: 28 February 2015 00:00
Search period end: 10 March 2015 01:00
Orbit: 336 x 1346 km, 69.9° (Epoch: 28 February)

Date Brightness Start Highest point End Pass type
(mag) Time Alt. Az. Time Alt. Az. Time Alt. Az.
28 Feb 6.6 19:55:28 10° N 20:00:29 18° NE 20:01:46 18° NE visible
28 Feb 6.1 21:38:45 10° NNW 21:43:35 38° N 21:43:35 38° N visible
28 Feb 7.1 23:23:22 10° NW 23:25:24 19° NW 23:25:24 19° NW visible
01 Mar 6.6 19:40:10 10° N 19:45:07 18° NE 19:47:08 17° NE visible
01 Mar 5.9 21:23:27 10° NNW 21:28:57 42° N 21:28:57 42° N visible
01 Mar 6.9 23:08:01 10° NW 23:10:45 22° NW 23:10:45 22° NW visible
02 Mar 6.6 19:24:50 10° N 19:29:42 17° NNE 19:32:29 15° ENE visible
02 Mar 5.7 21:08:05 10° NNW 21:14:18 46° NNE 21:14:18 46° NNE visible
02 Mar 6.7 22:52:37 10° NW 22:56:06 26° NW 22:56:06 26° NW visible
03 Mar 6.6 19:09:27 10° N 19:14:12 17° NNE 19:17:50 13° ENE visible
03 Mar 5.5 20:52:42 10° NNW 20:59:38 49° NE 20:59:38 49° NE visible
03 Mar 6.5 22:37:11 10° NW 22:41:27 31° NW 22:41:27 31° NW visible
04 Mar 6.7 18:54:01 10° N 18:58:41 17° NNE 19:03:10 11° ENE visible
04 Mar 5.4 20:37:15 10° NNW 20:44:59 49° NE 20:44:59 49° NE visible
04 Mar 6.3 22:21:42 10° NW 22:26:48 36° WNW 22:26:48 36° WNW visible
05 Mar 6.7 18:38:33 10° N 18:43:07 16° NNE 18:48:09 10° ENE visible
05 Mar 5.4 20:21:45 10° NNW 20:29:38 48° NE 20:30:19 47° ENE visible
05 Mar 6.0 22:06:11 10° NW 22:12:08 42° WNW 22:12:08 42° WNW visible
06 Mar 6.7 18:23:01 10° N 18:27:30 16° NNE 18:32:25 10° ENE visible
06 Mar 5.4 20:06:14 10° NNW 20:14:04 46° NE 20:15:40 42° E visible
06 Mar 5.8 21:50:37 10° NW 21:57:29 49° W 21:57:29 49° W visible
07 Mar 5.5 19:50:38 10° NNW 19:58:28 45° NE 20:01:02 36° E visible
07 Mar 5.6 21:35:00 10° NW 21:42:51 53° WSW 21:42:51 53° WSW visible
07 Mar 7.5 23:24:37 10° W 23:24:40 10° W 23:24:40 10° W visible
08 Mar 5.6 20:35:01 10° NNW 20:42:48 43° NE 20:46:25 30° E visible
08 Mar 5.5 22:19:20 10° NW 22:27:29 55° WSW 22:28:14 54° SW visible
09 Mar 7.4 00:08:09 10° WNW 00:10:03 11° W 00:10:03 11° W visible
09 Mar 5.6 20:19:20 10° NNW 20:27:05 42° NE 20:31:50 23° ESE visible
09 Mar 5.5 22:03:38 10° NNW 22:11:49 58° WSW 22:13:39 48° SSW visible
09 Mar 7.3 23:51:57 10° WNW 23:54:45 12° W 23:55:28 11° W visible
